Regional Weather Roundup
Issued by NWS

Home | Current Version | Previous Version | Graphics & Text | Print | Product List | Glossary On
Versions: 1 2 3 4 5 6 7 8 9 10 11 12 13 14 15 16 17 18 19 20 21 22 23 24 25 26 27 28
000
ASUS45 KCYS 251410
RWRWY

WYOMING REGIONAL WEATHER ROUNDUP
NATIONAL WEATHER SERVICE CHEYENNE WY
800 AM MDT WED MAY 25 2016

NOTE:  "FAIR" INDICATES FEW OR NO CLOUDS BELOW 12,000 FEET
WITH NO SIGNIFICANT WEATHER AND/OR OBSTRUCTIONS TO VISIBILITY.

WYZ001-251500-
YELLOWSTONE NATIONAL PARK

CITY           SKY/WX    TMP DP  RH WIND       PRES   REMARKS
LK YELLOWSTONE   N/A     33  31  92 CALM      30.04R
W YELLOWSTONE  NOT AVBL

$$
WYZ002>013-054>058-071-098>099-251500-
NORTHERN WYOMING

CITY           SKY/WX    TMP DP  RH WIND       PRES   REMARKS
JACKSON        SHOWER    39  37  93 S7        30.03R WCI  34
CODY           CLOUDY    46  43  87 CALM      29.94R
GREYBULL       CLOUDY    51  45  79 E3        29.91S
WORLAND        LGT RAIN  48  46  93 SE6       29.91S
SHERIDAN       CLOUDY    51  46  83 SE5       29.92R
BUFFALO        LGT RAIN  46  43  89 W3        29.95R FOG
GILLETTE       CLOUDY    48  46  93 NW6       29.92R
HULETT         PTSUNNY   52  48  87 SW8       29.91S
NEWCASTLE      CLOUDY    48  46  93 CALM      29.91S

$$
WYZ014>020-022>026-101>103-251500-
CENTRAL WYOMING

CITY           SKY/WX    TMP DP  RH WIND       PRES   REMARKS
BIG PINEY      CLOUDY    40  37  89 E3        30.04S
PINEDALE       CLOUDY    37  37 100 CALM      30.05S
DUBOIS         FAIR      43  34  70 N10G16    29.97F
LANDER         PTSUNNY   46  39  76 E5        29.94R
RIVERTON       PTSUNNY   48  41  76 SW6       29.96R
CASPER         FAIR      51  36  56 SW22G29   29.94R
DOUGLAS          N/A    N/A N/A N/A MISG      29.94S

$$
WYZ021-027>030-104>119-251500-
SOUTHERN WYOMING

CITY           SKY/WX    TMP DP  RH WIND       PRES   REMARKS
EVANSTON       PTSUNNY   39  33  79 SW6       30.06R WCI  35
KEMMERER         N/A     41  36  81 S3        30.06R
FORT BRIDGER   MOSUNNY   43  41  93 SW8       30.08S
ROCK SPRINGS   FAIR      43  36  76 SW8       30.05R
DIXON          FAIR      50  37  61 S14       30.07F
RAWLINS        PTSUNNY   43  35  73 SW13      30.05R
SARATOGA       FAIR      46  37  71 SE7       30.06R
LARAMIE        FAIR      47  33  58 SW17G24   30.04R
CHEYENNE       FAIR      54  37  52 SW10      30.01S
TORRINGTON     FAIR      50  46  86 CALM      29.93R
PINE BLUFFS    FAIR      52  45  76 SE3       29.99F

$$




USA.gov is the U.S. government's official web portal to all federal, state and local government web resources and services.